User: anonymous   Login
Location: Unspecified
(0.0000°N, 0.0000°E)
Time: 22:32:56
(UTC+00:00)
Language:

METEOR-M - Orbit

View from above orbital plane
View from above orbital plane
View from above satellite
View from above satellite

Ground track
Ground track

The orbit data is extracted from the following two-line orbital elements,

1 35865U 09049A   18348.51148765  .00000025  00000-0  29903-4 0  9994
2 35865  98.4074 350.2253 0002594  24.5754 335.5548 14.22176104479616
Epoch (UTC): 14 December 2018 12:16:32
Eccentricity: 0.0002594
inclination: 98.4074°
perigee height: 816 km
apogee height: 820 km
right ascension of ascending node: 350.2253°
argument of perigee: 24.5754°
revolutions per day: 14.22176104
mean anomaly at epoch: 335.5548°
orbit number at epoch: 47961

The dashed part of the orbit path shows where the satellite is in the earth's shadow,  

DLR